Location: Ajisawe
(8.4333°N, 4.3833°E)
Time: 00:58:43
(UTC+00:00)

Courier 1B Rocket - Pass Details

Date: 25 April 2021
Orbit: 920 x 1202 km, 28.3° (Epoch: 13 May)

Event Time Altitude Azimuth Distance (km) Brightness Sun altitude
Rises 21:21:49 0° 313° (NW) 3,729 8.7 -49.2°
Reaches altitude 10° 21:24:57 10° 326° (NW) 2,827 7.8 -49.9°
Enters shadow 21:25:27 12° 329° (NNW) 2,699 7.7 -50.0°
Maximum altitude 21:30:33 26° 20° (NNE) 1,994 - -51.0°
Drops below altitude 10° 21:36:28 10° 74° (ENE) 2,999 - -52.2°
Sets 21:39:54 0° 86° (E) 4,002 - -52.9°
